Regional Weather Roundup
Issued by NWS

Home | Current Version | Previous Version | Graphics & Text | Print | Product List | Glossary On
Versions: 1 2 3 4 5 6 7 8 9 10 11 12 13 14 15 16 17 18 19 20 21 22 23 24 25 26 27 28 29 30 31 32 33 34 35 36 37 38 39 40 41 42 43 44 45 46 47 48 49 50
220
ASUS44 KLIX 260210
RWRLA
LOUISIANA WEATHER ROUNDUP
NATIONAL WEATHER SERVICE NEW ORLEANS LA
900 PM CDT SAT OCT 25 2014

NOTE: "FAIR" INDICATES FEW OR NO CLOUDS BELOW 12,000 FEET WITH NO
      SIGNIFICANT WEATHER AND/OR OBSTRUCTIONS TO VISIBILITY.
      SKY/WX - SKY CONDITION AND SIGNIFICANT WEATHER.
      TMP - AIR TEMPERATURE.    DP   - DEWPOINT TEMPERATURE.
      RH  - RELATIVE HUMIDITY.  PRES - PRESSURE.
      HX  - HEAT INDEX.         WCI  - WIND CHILL INDEX.

*  THESE STATIONS ARE NOT NWS OR FAA STATIONS AND ARE NOT UNDER
   NWS QUALITY CONTROL.

LAZ040-048-061>063-065-066-069-260300-
SOUTHEAST LOUISIANA

CITY           SKY/WX    TMP DP  RH WIND       PRES   REMARKS
N.O. AUDUBON     N/A     67  61  80 MISG        N/A
N.O. INTL ARPT CLEAR     68  56  65 W3        30.09R
N.O. LAKEFRONT CLEAR     73  67  81 W7        30.09R
N.O. DOWNTOWN* FAIR      73  54  49 CALM      30.09S
SLIDELL        CLEAR     62  58  86 CALM      30.08R
BATON ROUGE    CLEAR     61  56  83 CALM      30.10R
BOOTHVILLE     CLEAR     65  59  81 SW6       30.09R
BELLE CHASSE   CLEAR     60  56  86 CALM      30.08S
BOGALUSA*        N/A     63  58  84 CALM      30.10S
NEW ROADS*     FAIR      61  56  86 CALM      30.10S
GONZALES*      FAIR      61  58  92 CALM      30.10R
HAMMOND*       CLEAR     63  57  82 CALM      30.11R
HOUMA*         CLEAR     58  55  90 CALM      30.10R
PORT FOURCHON* CLEAR     72  61  68 CALM      30.13R

$$

LAZ041-044-053-054-260300-
SOUTHWEST LOUISIANA

CITY           SKY/WX    TMP DP  RH WIND       PRES   REMARKS
LAKE CHARLES   CLEAR     63  58  83 CALM      30.11R
LAFAYETTE      CLEAR     62  60  93 CALM      30.10R
PATTERSON      CLEAR     61  57  88 CALM      30.13R
SALT POINT       N/A     68  63  84 CALM      30.10R
NEW IBERIA     CLEAR     63  56  78 CALM      30.11R
CHENAULT AIRPK CLEAR     63  55  77 CALM      30.12

$$

LAZ027-028-260300-
CENTRAL LOUISIANA

CITY           SKY/WX    TMP DP  RH WIND       PRES   REMARKS
FORT POLK      CLEAR     61  56  84 CALM      30.10S
ALEXANDRIA INT CLEAR     62  56  80 CALM      30.08S
ALEXANDRIA     CLEAR     58  57  97 CALM      30.10S

$$

LAZ001-002-260300-
NORTHWEST LOUISIANA

CITY           SKY/WX    TMP DP  RH WIND       PRES   REMARKS
SHREVEPORT     CLEAR     71  65  81 CALM      30.07S
BARKSDALE AFB  CLEAR     67  64  91 SE2       30.07S
DTN SHREVEPORT CLEAR     69  63  81 CALM      30.07S

$$

LAZ014-016-260300-
NORTHEAST LOUISIANA

CITY           SKY/WX    TMP DP  RH WIND       PRES   REMARKS
MONROE         CLEAR     63  61  93 CALM      30.09S
TALLULAH       CLEAR     61  58  90 CALM      30.08R

$$




USA.gov is the U.S. government's official web portal to all federal, state and local government web resources and services.